OBJECT H, 63217

Orbit data source: Space-Track

You're viewing an uncataloged RSO

Recently launched and/or uncataloged RSOs may have evolving metadata. Metadata may include the following, but is not limited to: Owner, Manufacturer, Bus, Motor, and Mission.

OBJECT H, 63217 is a satellite in SSO that was launched on Sat, 15 Mar 2025 UTC via an FALCON 9 launch vehicle from the Air Force Western Test Range (AFWTR). Unknown objects in Earth's orbit typically refer to objects detected orbiting the Earth but have not yet been identified or cataloged. These objects could be anything from previously untracked satellites, spent rocket stages, debris from satellite collisions, or even natural meteoroids temporarily captured by Earth's gravity.

Loading next visibility...
Identifier
63217, 2025-052H
Orbit
SSO
Country
Flag of TBDTBD
Related business
Flag of ILTel Aviv University (IL)
Manufacturer
ISA/TAU
Mission
Operational Amateur Communications
Bus & Motor
CUBESAT 1U, Unknown motor
Mass
1 kg wet, 1 kg dry
Launch date (UTC)
2025-03-15 (2 years ago)
Launch vehicle
FALCON 9
Launch site
Air Force Western Test Range (AFWTR)
Object type
Unknown
Shape & HBR
Box, 0.1 m
Radar Cross Section
0.015 m², Medium (>0.1 m² and < 1m²)

Expand to show TLE details & history
Last TLE update: 17 hours ago

TLE from 17 hours ago
0 OBJECT H
1 63217U 25052H   26264.69951931  .00012828  00000-0  35833-3 0  9992
2 63217  97.3732 160.7995 0004357 117.0871 243.0818 15.36832891 84906
Epoch: 2026-09-21T16:47Z
TLE epoch observation values (Epoch: 2026-09-21T16:47:18.468Z)
Latitude
-0.00004°
Longitude
-91.60304°
Altitude
459.945 km
Speed
7.636 km/s
True Right ascension
10h 43m 11s
True Declination
0° 00' 00"
Sunlit
Object was in daylight at epoch
Visualization orbit readout
Latitude
Unknown
Longitude
Unknown
Altitude
Unknown
Speed
Unknown
Apparent Right ascension
Unknown
Apparent Declination
Unknown
Sunlit
N/A
Visualization observer readout
Local Sidereal Time
02:48:49
Azimuth
Unknown
Elevation
Unknown
Doppler factor
Unknown
Orbital elements
Apogee altitude
455.4 km
Perigee altitude
449.448 km
Semi-major axis
6,830.561 km
Eccentricity
0.00044
Inclination
97.3732°
RAAN
160.7995°
Arg. of periapsis
117.0871°
True anomaly
243.03729°
Mean anomaly
243.0818°
Eccentric anomaly
243.05955°
Mean motion
3.84467 °/min
Orbital period
93.64 mins
BSTAR
0.00035833
Loading maneuver chart data...
Computing Atmospheric mass density...
Loading historical data...
Loading historical data...
Loading historical data...
Loading historical data...
Loading historical data...
Loading historical data...
Loading historical data...

Documentation

Showing up to 5 results
|